Tracking 22879 objects as of 20-Apr-2021
HD Live streaming from Space Station
objects crossing your sky now

IUE

Track IUE now!
IUE is classified as:


NORAD ID: 10637
Int'l Code: 1978-012A
Perigee: 28,987.0 km
Apogee: 42,717.3 km
Inclination: 40.8 °
Period: 1,439.1 minutes
Semi major axis: 42223 km
RCS: 5.9851 m2 (large)
Launch date: January 26, 1978
Source: United States (US)
Launch site: AIR FORCE EASTERN TEST RANGE (AFETR)

The International Ultraviolet Explorer (IUE, formerly SAS-D) satellite was a spaceborne ultraviolet astronomical observatory for use as an international facility. IUE was shut down at 18:42 UT, 30 September 1996.
aabbcc
Your satellite tracking list
Your tracking list is empty




NASA's NSSDC Master Catalog

Two Line Element Set (TLE):
1 10637U 78012A   21108.93747330 -.00000273  00000-0  00000-0 0  9996
2 10637  40.8345 316.2137 1625924 234.0289 104.4072  1.00063807110200
Source of the keplerian elements: AFSPC